URO661 LOWW-EGHH

Flight info

Callsign URO661
Flight time N/A
Altitude 34000
Route MEDIX DCT LAMSI/N0457F380 DCT INBED DCT BOMBI DCT DENUT L610 NILON/N0400F240 M40 UMBUR
Aircraft A346/H-SDE1E2E3FGHIJ2J3J4J5M1P2RWXY/EB1D1

Departure

Time 2026-04-30 22:25
Airport Vienna International Airport (LOWW)

Arrival

Time N/A
Airport Bournemouth Airport (EGHH)
Time Latitude Longitude Altitude Speed Heading
2026-04-30 21:43 48.12209 16.54715 619 ft 0 kts 26°
2026-04-30 22:11 48.12201 16.54708 619 ft 2 kts 26°
2026-04-30 22:12 48.12187 16.54699 619 ft 2 kts 26°
2026-04-30 22:12 48.12174 16.54689 619 ft 2 kts 26°
2026-04-30 22:12 48.12161 16.54678 619 ft 2 kts 45°
2026-04-30 22:12 48.12152 16.54660 619 ft 2 kts 72°
2026-04-30 22:13 48.12150 16.54638 619 ft 2 kts 95°
2026-04-30 22:13 48.12154 16.54616 619 ft 2 kts 118°
2026-04-30 22:13 48.12162 16.54597 619 ft 2 kts 120°
2026-04-30 22:13 48.12168 16.54577 619 ft 2 kts 116°
2026-04-30 22:14 48.12175 16.54557 619 ft 2 kts 115°
2026-04-30 22:14 48.12180 16.54541 619 ft 0 kts 116°
2026-04-30 22:17 48.12178 16.54548 619 ft 0 kts 115°
2026-04-30 22:17 48.12170 16.54572 619 ft 4 kts 116°
2026-04-30 22:17 48.12115 16.54611 619 ft 6 kts 187°
2026-04-30 22:18 48.12076 16.54625 619 ft 7 kts 138°
2026-04-30 22:18 48.12006 16.54827 619 ft 13 kts 116°
2026-04-30 22:19 48.11908 16.55128 619 ft 18 kts 116°
2026-04-30 22:19 48.11851 16.55303 619 ft 19 kts 116°
2026-04-30 22:19 48.11734 16.55663 619 ft 19 kts 116°
2026-04-30 22:20 48.11671 16.55853 619 ft 21 kts 116°
2026-04-30 22:20 48.11555 16.56212 619 ft 19 kts 116°
2026-04-30 22:20 48.11495 16.56394 619 ft 18 kts 116°
2026-04-30 22:21 48.11438 16.56571 619 ft 19 kts 116°
2026-04-30 22:21 48.11382 16.56741 619 ft 18 kts 116°
2026-04-30 22:21 48.11324 16.56920 619 ft 20 kts 116°
2026-04-30 22:21 48.11263 16.57105 619 ft 18 kts 116°
2026-04-30 22:22 48.11206 16.57283 619 ft 19 kts 116°
2026-04-30 22:22 48.11156 16.57436 619 ft 13 kts 116°
2026-04-30 22:22 48.11130 16.57512 619 ft 4 kts 123°
2026-04-30 22:22 48.11093 16.57534 619 ft 7 kts 188°
2026-04-30 22:23 48.11034 16.57494 619 ft 8 kts 207°
2026-04-30 22:23 48.10978 16.57452 619 ft 4 kts 207°
2026-04-30 22:23 48.10961 16.57419 619 ft 5 kts 256°
2026-04-30 22:23 48.10966 16.57374 619 ft 2 kts 296°
2026-04-30 22:24 48.10967 16.57373 619 ft 0 kts 296°
2026-04-30 22:24 48.10989 16.57302 619 ft 32 kts 296°
2026-04-30 22:24 48.11208 16.56630 619 ft 107 kts 296°
2026-04-30 22:24 48.11631 16.55332 620 ft 167 kts 296°
2026-04-30 22:25 48.12191 16.53611 931 ft 191 kts 297°
2026-04-30 22:25 48.12633 16.51796 1647 ft 191 kts 279°
2026-04-30 22:25 48.12436 16.49817 2231 ft 200 kts 252°
2026-04-30 22:25 48.11875 16.47836 2671 ft 214 kts 248°
2026-04-30 22:26 48.10912 16.43402 3580 ft 239 kts 259°
2026-04-30 22:26 48.10516 16.40917 4038 ft 256 kts 258°
2026-04-30 22:26 48.10077 16.38287 4552 ft 271 kts 262°
2026-04-30 22:27 48.09845 16.35491 5300 ft 275 kts 271°
2026-04-30 22:27 48.09843 16.32633 6154 ft 278 kts 274°
2026-04-30 22:27 48.09957 16.26833 7848 ft 285 kts 275°
2026-04-30 22:28 48.10197 16.20859 9464 ft 293 kts 284°
2026-04-30 22:28 48.10703 16.17937 10266 ft 294 kts 293°
2026-04-30 22:29 48.13005 16.08674 11648 ft 344 kts 295°
2026-04-30 22:29 48.13858 16.05261 12012 ft 362 kts 295°
2026-04-30 22:30 48.17489 15.90411 14731 ft 393 kts 295°
2026-04-30 22:31 48.20324 15.78709 16984 ft 405 kts 296°
2026-04-30 22:32 48.23231 15.66678 19079 ft 417 kts 296°
2026-04-30 22:32 48.25209 15.58452 20352 ft 426 kts 297°
2026-04-30 22:33 48.28245 15.45759 22103 ft 441 kts 297°
2026-04-30 22:33 48.30235 15.36941 23258 ft 452 kts 295°
2026-04-30 22:34 48.33044 15.23215 24862 ft 465 kts 294°
2026-04-30 22:35 48.34927 15.13937 26022 ft 469 kts 295°
2026-04-30 22:36 48.38770 14.94933 27979 ft 483 kts 296°
2026-04-30 22:36 48.39736 14.90136 28414 ft 487 kts 296°
2026-04-30 22:37 48.42704 14.75322 29676 ft 499 kts 296°
2026-04-30 22:37 48.43692 14.70352 30184 ft 499 kts 296°
2026-04-30 22:37 48.45651 14.60447 31369 ft 496 kts 296°
2026-04-30 22:38 48.47606 14.50537 32498 ft 492 kts 296°
2026-04-30 22:38 48.49534 14.40713 33572 ft 489 kts 296°
2026-04-30 22:39 48.50494 14.35815 34028 ft 488 kts 296°
2026-04-30 22:39 48.53332 14.21232 35459 ft 481 kts 295°
2026-04-30 22:40 48.56111 14.06875 36572 ft 477 kts 294°
2026-04-30 22:41 48.58866 13.92505 37526 ft 478 kts 294°
2026-04-30 22:41 48.60701 13.82871 38084 ft 479 kts 293°
2026-04-30 22:42 48.64356 13.63527 38377 ft 482 kts 294°
2026-04-30 22:43 48.66568 13.54066 38397 ft 475 kts 300°
2026-04-30 22:44 48.71854 13.35933 38401 ft 473 kts 302°
2026-04-30 22:45 48.79792 13.08542 38394 ft 474 kts 301°
2026-04-30 22:47 48.87637 12.81106 38395 ft 473 kts 301°
2026-04-30 22:48 48.92819 12.62814 38387 ft 473 kts 301°
2026-04-30 22:49 49.00532 12.35327 38397 ft 474 kts 301°
2026-04-30 22:51 49.08203 12.07664 38387 ft 474 kts 300°
2026-04-30 22:52 49.12034 11.93723 38394 ft 474 kts 300°
2026-04-30 22:53 49.17078 11.75248 38379 ft 473 kts 300°
2026-04-30 22:53 49.20832 11.61408 38373 ft 474 kts 299°
2026-04-30 22:55 49.27084 11.38154 38366 ft 473 kts 299°
2026-04-30 22:56 49.32058 11.19497 38378 ft 474 kts 298°
2026-04-30 22:57 49.38240 10.96111 38379 ft 474 kts 299°
2026-04-30 22:58 49.43943 10.78122 38375 ft 470 kts 303°
2026-04-30 22:59 49.52642 10.51183 38377 ft 471 kts 302°